Regional Weather Roundup
Issued by NWS

Home | Current Version | Previous Version | Text Only | Print | Product List | Glossary Off
Versions: 1 2 3 4 5 6 7 8 9 10 11 12 13 14 15 16 17 18 19 20 21 22 23 24 25 26 27 28 29 30 31 32 33 34 35 36 37 38 39 40 41 42 43 44 45 46 47 48 49 50

000
ASUS43 KDMX 171201
RWRIA

WEATHER ROUNDUP FOR IOWA
NATIONAL WEATHER SERVICE DES MOINES IA
700 AM CDT TUE OCT 17 2017

NOTE: "FAIR" INDICATES FEW OR NO CLOUDS BELOW 12,000 FEET WITH NO
SIGNIFICANT WEATHER AND/OR OBSTRUCTIONS TO VISIBILITY.

* - THESE STATIONS ARE NOT NWS STATIONS...THUS NOT UNDER NWS
QUALITY CONTROL.  THEY ALSO DO NOT REPORT WEATHER SUCH
AS PRECIPITATION OR FOG.

IAZ001>003-012>014-020>022-031>034-043>046-171300-
   NORTHWEST IOWA

CITY           SKY/WX    TMP DP  RH WIND       PRES   REMARKS
CARROLL *      CLEAR     52  45  76 SW15G21   30.08S
CHEROKEE *     CLEAR     41  40  95 CALM      30.06S
DENISON *      CLEAR     46  39  76 S5        30.11S
LE MARS *      CLEAR     41  39  93 S3        30.06S
ORANGE CITY *  CLEAR     43  39  87 CALM      30.05S
SHELDON *      CLEAR     37  36  93 S6        30.04S WCI  33
SIOUX CITY     CLEAR     38  37  97 E7        30.07S WCI  33
6HR MIN TEMP:  38; 6HR MAX TEMP:  59;

SPENCER        CLEAR     44  39  82 SW6       30.05S
6HR MIN TEMP:  44; 6HR MAX TEMP:  54;

STORM LAKE *   CLEAR     48  39  71 SW12      30.06F
$$

IAZ055>058-069>071-079>083-090>094-171300-
   SOUTHWEST IOWA

CITY           SKY/WX    TMP DP  RH WIND       PRES   REMARKS
ATLANTIC *     CLEAR     41  39  93 S7        30.12F
AUDUBON *      CLEAR     48  43  81 S7        30.12S
CLARINDA *     CLEAR     46  41  81 S7        30.17S
COUNCIL BLFS * CLEAR     46  43  87 S9        30.11S
CRESTON *      CLEAR     45  41  87 S8        30.16S
HARLAN  *      CLEAR     43  41  93 SW5       30.14S
LAMONI         CLEAR     47  40  76 S10       30.17F
6HR MIN TEMP:  46; 6HR MAX TEMP:  52;

RED OAK *      CLEAR     46  41  81 SW3       30.14S
SHENANDOAH *   CLEAR     46  41  81 CALM      30.15R
$$

IAZ047>049-059>061-072>074-084-171300-
   CENTRAL IOWA

CITY           SKY/WX    TMP DP  RH WIND       PRES   REMARKS
AMES           CLEAR     47  41  80 S5        30.11S
6HR MIN TEMP:  47; 6HR MAX TEMP:  54;

ANKENY *       CLEAR     52  41  66 S8        30.14S
BOONE *        CLEAR     48  41  76 SW7       30.10R
CHARITON *     CLEAR     46  41  81 S10       30.16S
DES MOINES     PTCLDY    51  40  65 S7        30.14R
6HR MIN TEMP:  50; 6HR MAX TEMP:  56;

GRINNELL*      CLEAR     46  40  79 S8        30.16R
KNOXVILLE *    CLEAR     50  39  66 SW12      30.14S
MARSHALLTOWN   CLEAR     49  41  74 SW8       30.12R
6HR MIN TEMP:  48; 6HR MAX TEMP:  55;

NEWTON *       CLEAR     48  41  76 S10       30.14S
PELLA *        CLEAR     49  40  71 SW8       30.17R
PERRY *          N/A     50  38  63 S7        30.11R
$$

IAZ004>006-015-016-023>025-035-036-171300-
   NORTH CENTRAL IOWA

CITY           SKY/WX    TMP DP  RH WIND       PRES   REMARKS
ALGONA *       CLEAR     45  41  87 SW7       30.06S
CLARION *      CLEAR     43  41  93 S7        30.08S
ESTHERVILLE    CLEAR     47  40  76 SW5       30.04S
6HR MIN TEMP:  47; 6HR MAX TEMP:  53;

FORT DODGE *   CLEAR     46  40  79 S7        30.08F
MASON CITY     CLEAR     49  39  68 SW10      30.07S
6HR MIN TEMP:  49; 6HR MAX TEMP:  56;

FOREST CITY *    N/A     43  39  87 CALM      30.06S
WEBSTER CITY * CLEAR     46  39  76 S7        30.07S
IOWA FALLS *     N/A     49  41  75 S7        30.10S
$$

IAZ007>011-017>019-026>030-037>042-050>054-066-171300-
   NORTHEAST IOWA

CITY           SKY/WX    TMP DP  RH WIND       PRES   REMARKS
CEDAR RAPIDS   CLEAR     47  40  76 S7        30.14S
6HR MIN TEMP:  47; 6HR MAX TEMP:  52;

CHARLES CITY * CLEAR     43  41  93 S6        30.08S
CLINTON *      CLOUDY    47  40  76 SW7       30.18
DECORAH *      CLEAR     48  41  76 SW5       30.06S
DUBUQUE        CLEAR     46  40  79 S13       30.12S
6HR MIN TEMP:  46; 6HR MAX TEMP:  50;

MONTICELLO *   CLOUDY    50  41  71 S6G12     30.14R
OELWEIN *      CLEAR     43  41  93 S7        30.11R
WATERLOO       CLEAR     50  40  68 SW7       30.09S
6HR MIN TEMP:  49; 6HR MAX TEMP:  54;

$$

IAZ064-065-067-068-078-171300-
   EAST CENTRAL IOWA

CITY           SKY/WX    TMP DP  RH WIND       PRES   REMARKS
DAVENPORT      PTCLDY    50  40  68 SW10      30.20F
6HR MIN TEMP:  47; 6HR MAX TEMP:  54;

IOWA CITY      CLEAR     47  40  76 S5        30.18S
6HR MIN TEMP:  47; 6HR MAX TEMP:  54;

MUSCATINE *    CLEAR     50  41  71 S7        30.20S
QUAD CITIES    CLOUDY    49  39  68 SW5       30.19S
6HR MIN TEMP:  47; 6HR MAX TEMP:  55;

$$

IAZ062-063-075>077-085>089-095>099-171300-
   SOUTHEAST IOWA

CITY           SKY/WX    TMP DP  RH WIND       PRES   REMARKS
BURLINGTON     CLEAR     46  42  86 S5        30.22S
6HR MIN TEMP:  44; 6HR MAX TEMP:  52;

FAIRFIELD *    CLEAR     48  39  71 SW9       30.19R
FORT MADISON * CLOUDY    48  43  81 S6        30.23S
KEOKUK *       PTCLDY    46  41  81 S6        30.22S
OSKALOOSA *      N/A     46  40  81 S10       30.18S
OTTUMWA        CLEAR     47  40  76 S10       30.18S
6HR MIN TEMP:  46; 6HR MAX TEMP:  54;

WASHINGTON *   CLEAR     46  41  81 SW8       30.20S
$$

ABBREVIATIONS USED IN REMARKS
   TC - TEMPERATURES IN CELSIUS
  WCI - WIND CHILL INDEX
   HX - HEAT INDEX
  VSB - VISIBILITY
$$





USA.gov is the U.S. government's official web portal to all federal, state and local government web resources and services.